Probability
3 3 3 0 0 0 0 0 0 0 0 0 0 0 0 0 0 0 0 0 0 0 0 0 0 0 0 0 0 0 0 0 0 0 0 0 0 0 0 0 0 0 0
0 0 0 0 0 0 0 0 0 0 0 0 0 0 0 0 0 0 0 0 0 0 0 0 0 0 0 0 0 0 0 0 0 0 0 0 0 0 0 0 0 0 0
0 0 0 0 0 0 0 0 0 0 0 0 0 0 0 0 0 0 0 0 0 0 0 0 0 0 0 0 0 0 0 0 0 0 0 0 0 0 0 0 0 0 0
0 0 0 0 0 0 0 0 0 0 0 0 0 0 0 0 0 0 0 0 0 0 0 0 0 0 0 0 0 0 0 0 0 0 0 0 0 0 0 0 0 0 0
0 0 0 0 0 0 0 0 0 0 0 0 0 0 0 0 0 0 0 0 0 0 0 0 0 0 0 0 0 0 0 0 0 0 0 0 0 0 0 0 0 0 0
0 0 0 0 0 0 0 0 0 0 0 0 0 0 0 0 0 0 0 0 0 0 0 0 0 0 0 0 0 0 0 0 0 0 0 0 0 0 0 0 0 0 0
0 0 0 0 0 0 0 0 0 0 0 0 0 0 0 0 0 0 0 0 0 0 0 0 0 0 0 0 0 0 0 0 0 0 0 0 0 0 0 0 0 0 0
3 0 0 0 0 0 0 0 0 0 0 0 0 0 0 0 0 0 0 0 0 0 0 0 0 0 0 0 0 0 0 0 0 0 0 0 0 0 0 0 0 0 0
3 3 0 0 0 0 0 0 0 0 0 0 0 0 0 0 0 0 0 0 0 0 0 0 0 0 0 0 0 0 0 0 0 0 0 0 0 0 0 0 0 0 0
3 3 0 0 0 0 0 0 0 0 0 0 0 0 0 0 0 0 0 0 0 0 0 0 0 0 0 0 0 0 0 0 0 0 0 0 0 0 0 0 0 0 0
3 0 0 0 0 0 0 0 0 0 0 0 0 0 0 0 0 0 0 0 0 0 0 0 0 0 0 0 0 0 0 0 0 0 0 0 0 0 0 0 0 0 0
0 0 0 0 0 0 0 0 0 0 0 0 0 0 0 0 0 0 0 0 0 0 0 0 0 0 0 0 0 0 0 0 0 0 0 0 0 0 0 0 0 0 0
0 0 0 0 0 0 0 0 0 0 0 0 0 0 0 0 0 0 0 0 0 0 0 0 0 0 0 0 0 0 0 0 0 0 0 0 0 0 0 0 0 0 0
0 0 0 0 0 0 0 0 0 0 0 0 0 0 0 0 0 0 0 0 0 0 0 0 0 0 0 0 0 0 0 0 0 0 0 0 0 0 0 0 0 0 0
0 0 0 0 0 0 0 0 0 0 0 0 0 0 0 0 0 0 0 0 0 0 0 0 0 0 0 0 0 0 0 0 0 0 0 0 0 0 0 0 0 0 0
0 0 0 0 0 0 0 0 0 0 0 0 0 0 0 0 0 0 0 0 0 0 0 0 0 0 0 0 0 0 0 0 0 0 0 0 0 0 0 0 0 0 0
0 0 0 0 0 0 0 0 0 0 0 0 0 0 0 0 0 0 0 0 0 0 0 0 0 0 0 0 0 0 0 0 0 0 0 0 0 0 0 0 0 0 0
0 0 0 0 0 0 0 0 0 0 0 0 0 0 0 0 0 0 0 0 0 0 0 0 0 0 0 0 0 0 0 0 0 0 0 0 0 0 0 0 0 0 0
0 0 0 0 0 0 0 0 0 0 0 0 0 0 0 0 0 0 0 0 0 0 0 0 0 0 0 0 0 0 0 0 0 0 0 0 0 0 0 0 0 0 0
0 0 0 0 0 0 0 0 0 0 0 0 0 0 0 0 0 0 0 0 0 0 0 0 0 0 0 0 0 0 0 0 0 0 0 0 0 0 0 0 0 0 0
0 0 0 0 0 0 0 0 0 0 0 0 0 0 0 0 0 0 0 0 0 0 0 0 0 0 0 0 0 0 0 0 0 0 0 0 0 0 0 0 0 0 0
0 0 0 0 0 0 0 0 0 0 0 0 0 0 0 0 0 0 0 0 0 0 0 0 0 0 0 0 0 0 0 0 0 0 0 0 0 0 0 0 0 0 0
0 0 0 0 0 0 0 0 0 0 0 0 0 0 0 0 0 0 0 0 0 0 0 0 0 0 0 0 0 0 0 0 0 0 0 0 0 0 0 0 0 0 0
0 0 0 0 0 0 0 0 0 0 0 0 0 0 0 0 0 0 0 0 0 0 0 0 0 0 0 0 0 0 0 0 0 0 0 0 0 0 0 0 0 0 0
0 0 0 0 0 0 0 0 0 0 0 0 0 0 0 0 0 0 0 0 0 0 0 0 0 0 0 0 0 0 0 0 0 0 0 0 0 0 0 0 0 0 0
0 0 0 0 0 0 0 0 0 0 0 0 0 0 0 0 0 0 0 0 0 0 0 0 0 0 0 0 0 0 0 0 0 0 0 0 0 0 0 0 0 0 0
Height
5775 5772 5769 5766 5762 5759 5757 5755 5753 5750 5749 5747 5745 5743 5741 5740 5739 5738 5737 5737 5737 5737 5738 5738 5738 5739 5739 5739 5740 5741 5742 5743 5744 5745 5746 5746 5747 5749 5750 5752 5753 5755 5756
5770 5767 5764 5760 5757 5754 5751 5749 5746 5744 5742 5740 5738 5736 5734 5732 5731 5730 5729 5729 5728 5729 5729 5729 5729 5730 5730 5730 5731 5732 5733 5734 5735 5737 5737 5738 5739 5740 5742 5743 5745 5747 5748
5765 5762 5759 5756 5753 5749 5746 5743 5740 5737 5735 5733 5731 5729 5727 5725 5724 5722 5721 5721 5720 5720 5720 5720 5721 5721 5721 5722 5722 5723 5724 5725 5726 5727 5729 5730 5731 5732 5733 5735 5736 5738 5740
5760 5757 5754 5751 5747 5744 5741 5738 5735 5732 5730 5727 5725 5722 5720 5717 5716 5715 5713 5713 5712 5712 5712 5712 5712 5712 5712 5713 5714 5715 5715 5716 5717 5718 5720 5722 5723 5724 5725 5726 5728 5729 5731
5756 5752 5749 5746 5742 5739 5735 5732 5729 5727 5724 5721 5718 5715 5712 5710 5709 5707 5706 5705 5704 5704 5704 5703 5703 5704 5704 5704 5705 5706 5707 5707 5708 5710 5712 5713 5715 5716 5717 5718 5719 5720 5722
5750 5747 5743 5740 5737 5733 5730 5727 5724 5721 5718 5714 5711 5708 5706 5703 5702 5700 5698 5697 5696 5696 5695 5695 5695 5695 5695 5695 5696 5697 5698 5699 5700 5701 5703 5705 5706 5707 5708 5709 5710 5712 5714
5744 5741 5738 5734 5731 5728 5724 5721 5717 5714 5711 5708 5705 5702 5699 5697 5695 5693 5691 5690 5689 5688 5687 5687 5686 5686 5686 5687 5687 5688 5689 5690 5691 5693 5694 5696 5697 5698 5699 5700 5701 5703 5705
5739 5735 5732 5729 5726 5722 5718 5715 5711 5708 5705 5702 5699 5696 5693 5691 5689 5686 5684 5683 5682 5680 5679 5679 5678 5678 5678 5678 5678 5679 5680 5681 5682 5684 5685 5687 5688 5689 5690 5692 5693 5694 5696
5734 5730 5727 5723 5720 5716 5712 5709 5706 5702 5699 5696 5693 5690 5687 5685 5682 5680 5678 5676 5675 5674 5673 5672 5671 5671 5670 5670 5670 5670 5671 5672 5673 5674 5676 5677 5679 5680 5681 5683 5685 5686 5688
5729 5725 5721 5718 5714 5710 5707 5703 5700 5696 5693 5690 5687 5684 5681 5678 5676 5674 5672 5670 5669 5668 5666 5665 5664 5663 5662 5662 5662 5662 5663 5663 5664 5665 5667 5669 5670 5671 5672 5674 5676 5678 5680
5723 5719 5716 5712 5708 5705 5701 5698 5694 5690 5687 5684 5681 5678 5675 5673 5670 5668 5666 5664 5662 5661 5660 5659 5657 5656 5655 5655 5654 5654 5654 5654 5655 5656 5658 5660 5661 5663 5664 5666 5667 5669 5672
5716 5713 5709 5706 5702 5698 5695 5692 5688 5684 5681 5678 5675 5672 5670 5667 5664 5662 5660 5657 5656 5655 5653 5652 5651 5650 5649 5648 5647 5647 5646 5646 5647 5648 5650 5652 5653 5655 5656 5657 5659 5661 5663
5710 5706 5703 5699 5695 5692 5688 5685 5682 5678 5675 5672 5670 5667 5664 5661 5659 5656 5654 5652 5650 5648 5647 5646 5644 5643 5642 5641 5640 5640 5640 5640 5641 5642 5643 5644 5646 5647 5648 5650 5651 5653 5655
5704 5700 5696 5693 5689 5685 5682 5678 5675 5672 5669 5667 5664 5661 5658 5656 5653 5651 5648 5647 5645 5643 5641 5640 5638 5637 5636 5635 5634 5634 5634 5635 5635 5636 5636 5637 5638 5639 5640 5642 5643 5645 5647
5698 5694 5690 5686 5682 5679 5675 5672 5669 5666 5663 5661 5658 5656 5653 5650 5648 5645 5643 5641 5640 5638 5636 5634 5633 5632 5631 5630 5629 5629 5629 5629 5629 5630 5630 5631 5632 5633 5633 5635 5636 5637 5639
5691 5687 5683 5680 5677 5673 5670 5666 5663 5660 5658 5655 5652 5650 5647 5645 5643 5641 5639 5637 5635 5633 5631 5629 5627 5626 5625 5625 5624 5624 5624 5623 5623 5623 5624 5625 5625 5626 5627 5628 5629 5630 5632
5684 5681 5677 5674 5670 5667 5664 5661 5658 5655 5652 5649 5646 5644 5642 5639 5638 5636 5634 5632 5630 5628 5626 5624 5622 5621 5620 5619 5619 5618 5618 5617 5617 5617 5618 5619 5619 5620 5620 5621 5622 5624 5625
5677 5674 5671 5667 5664 5661 5657 5654 5651 5648 5646 5643 5640 5638 5635 5634 5632 5630 5628 5626 5624 5622 5620 5618 5617 5615 5614 5613 5613 5612 5612 5612 5612 5612 5612 5612 5613 5613 5614 5615 5616 5617 5618
5670 5667 5664 5660 5657 5654 5650 5647 5644 5641 5639 5636 5634 5632 5630 5628 5626 5624 5622 5620 5618 5617 5615 5613 5611 5610 5609 5608 5607 5607 5606 5606 5606 5606 5606 5606 5607 5607 5608 5609 5610 5610 5611
5663 5660 5657 5654 5650 5647 5643 5640 5637 5635 5632 5630 5628 5626 5624 5622 5620 5619 5617 5614 5612 5610 5609 5607 5605 5604 5603 5602 5601 5601 5601 5600 5600 5600 5600 5600 5601 5601 5602 5602 5603 5604 5604
5655 5653 5650 5646 5643 5640 5637 5633 5631 5628 5626 5624 5622 5620 5618 5616 5614 5612 5611 5609 5607 5605 5603 5601 5600 5598 5597 5596 5596 5595 5595 5595 5595 5594 5594 5594 5594 5595 5595 5596 5596 5597 5597
5648 5645 5643 5640 5636 5633 5630 5627 5625 5622 5620 5618 5616 5614 5612 5610 5608 5606 5605 5603 5601 5599 5598 5596 5595 5593 5592 5591 5590 5590 5590 5590 5589 5589 5589 5588 5588 5588 5588 5589 5589 5590 5590
5641 5638 5636 5633 5630 5627 5624 5621 5619 5616 5614 5612 5610 5608 5607 5605 5603 5601 5599 5597 5596 5594 5592 5590 5589 5588 5587 5586 5585 5585 5585 5584 5584 5584 5583 5583 5582 5582 5582 5582 5582 5583 5583
5634 5632 5629 5627 5624 5621 5618 5616 5613 5611 5609 5607 5605 5603 5601 5599 5597 5595 5594 5592 5590 5588 5587 5585 5584 5583 5582 5581 5580 5579 5579 5578 5578 5578 5578 5577 5577 5576 5576 5576 5576 5576 5576
5627 5625 5623 5621 5618 5616 5613 5610 5608 5606 5604 5602 5600 5598 5596 5594 5592 5590 5588 5587 5585 5583 5581 5580 5578 5577 5576 5575 5575 5574 5574 5573 5573 5572 5572 5571 5570 5570 5569 5569 5569 5568 5568
5621 5619 5617 5615 5613 5610 5608 5605 5603 5601 5599 5597 5596 5594 5592 5589 5587 5585 5583 5581 5580 5578 5576 5574 5573 5572 5571 5570 5569 5568 5568 5567 5567 5566 5565 5565 5564 5564 5563 5562 5562 5561 5561
Wind_Speed
23 23 24 24 23 23 24 23 24 24 24 25 25 25 25 25 26 26 27 28 29 29 30 30 31 31 31 30 30 30 30 29 29 29 28 28 28 28 27 28 28 28 28
23 23 23 23 23 23 23 24 24 24 24 25 25 25 25 26 25 26 26 27 27 28 29 29 30 31 31 30 30 30 29 29 29 29 28 28 27 27 28 28 29 29 29
24 24 23 24 23 23 24 24 23 23 23 24 24 25 25 24 25 25 26 27 27 27 28 28 29 29 29 29 29 29 28 28 28 27 27 27 27 28 29 29 29 30 30
24 24 24 24 24 23 23 24 23 23 23 24 24 24 24 24 25 25 26 26 26 26 26 27 27 27 28 28 28 28 28 28 28 27 27 27 27 28 29 29 29 29 29
25 24 24 24 24 24 24 24 24 23 24 24 25 24 24 25 25 25 25 25 26 26 25 25 26 26 27 28 29 29 28 28 28 28 27 27 27 27 29 29 29 30 30
26 26 25 25 25 25 25 25 25 25 24 25 25 25 24 23 24 23 24 25 26 26 25 25 26 26 27 27 28 28 28 28 28 28 27 27 27 27 28 28 28 29 29
26 26 26 26 25 25 26 25 25 25 25 25 24 24 23 23 23 23 23 24 24 25 26 26 27 27 28 28 29 29 29 29 29 28 28 27 27 28 28 28 28 28 29
27 27 27 26 26 26 26 26 25 24 25 25 24 24 23 23 23 23 23 23 23 23 24 25 25 26 26 27 29 29 29 29 29 29 28 27 27 27 28 28 28 28 28
28 27 27 26 26 27 26 26 25 25 25 25 24 23 23 23 22 22 21 22 21 21 21 22 24 24 24 25 26 26 27 28 28 28 28 28 27 27 27 28 28 28 27
28 28 27 27 26 26 26 26 25 25 25 25 23 23 22 22 22 21 21 20 21 21 21 21 22 23 23 24 24 24 25 26 27 28 27 27 27 27 27 27 27 27 27
28 28 28 27 27 26 26 26 25 24 24 23 23 22 22 21 21 21 21 21 21 20 20 20 21 22 22 23 23 23 24 25 26 26 26 25 25 26 26 26 26 26 26
28 28 28 27 27 27 26 26 25 24 22 22 22 22 21 21 21 21 21 21 21 20 20 20 20 20 21 21 21 21 22 22 23 23 24 24 24 25 24 25 25 25 25
28 28 28 27 28 27 26 25 24 23 23 23 22 22 21 21 20 20 19 19 20 20 19 19 19 19 19 19 18 18 18 19 20 21 21 22 23 23 23 23 24 25 25
28 28 29 28 28 27 26 25 24 24 23 23 22 21 21 20 20 20 20 19 18 18 18 19 19 19 18 18 18 18 18 18 19 20 20 21 21 22 22 22 22 23 23
29 29 29 28 28 27 26 25 24 23 23 22 22 22 21 20 19 19 18 17 17 17 17 17 18 18 17 17 17 17 18 18 18 19 19 19 19 20 21 21 21 21 22
29 28 28 28 27 26 25 24 24 23 23 23 22 21 21 19 19 18 17 17 16 16 17 17 16 16 17 17 17 17 18 18 19 19 18 18 18 19 20 21 21 21 22
28 28 27 27 26 26 25 25 24 23 23 23 21 20 20 19 19 18 18 17 17 17 17 16 16 16 17 17 17 17 17 17 17 18 18 18 18 19 19 20 20 21 21
28 27 27 26 26 26 26 25 24 23 22 22 21 20 19 19 19 19 19 18 18 18 18 17 16 16 17 17 16 16 17 17 17 17 18 18 18 18 19 19 20 20 21
28 27 27 27 27 26 26 25 24 22 22 21 20 20 19 18 18 19 19 19 19 19 19 18 17 17 16 16 17 17 17 17 17 17 17 18 18 18 19 19 19 20 20
27 27 27 27 27 26 26 25 23 22 21 20 19 19 18 17 17 18 18 18 19 19 18 18 18 17 17 17 17 17 17 17 17 18 18 18 18 18 19 20 20 20 20
26 26 26 26 26 26 25 24 22 21 20 19 19 18 18 17 17 18 18 17 17 18 18 17 17 17 17 17 16 16 16 16 17 17 17 18 18 19 19 20 20 20 20
26 26 26 26 26 26 24 23 21 20 19 19 19 19 19 18 18 18 17 17 17 16 17 17 17 17 16 16 16 15 16 16 16 16 17 17 18 18 18 19 19 20 20
26 26 25 25 24 23 22 21 20 20 19 20 19 19 19 18 18 17 17 16 16 16 17 17 17 17 16 16 15 15 16 16 17 17 17 17 17 17 18 19 19 19 20
25 25 24 23 22 22 21 20 19 18 18 18 18 18 18 18 18 17 17 16 16 17 17 17 17 17 16 16 16 16 17 17 17 17 18 18 17 17 18 19 20 20 20
24 23 22 21 21 20 20 20 19 17 17 17 17 17 17 17 17 18 18 18 18 18 18 18 17 17 17 17 16 16 16 17 17 17 17 17 18 18 18 19 20 20 20
23 23 22 22 21 20 20 19 18 17 16 16 16 16 17 17 17 17 18 17 18 18 18 18 18 17 16 16 16 16 16 17 17 17 17 17 18 18 18 19 19 18 18
Wind_Direction
307 306 305 304 303 302 297 295 293 291 289 290 290 289 287 284 281 278 275 274 270 268 266 266 266 266 266 266 265 265 264 263 262 261 261 260 258 259 258 256 257 258 257
308 308 309 308 306 305 303 302 299 293 291 291 291 291 288 285 283 279 276 274 271 269 268 268 268 266 265 264 264 265 263 263 263 261 260 259 258 258 258 259 258 258 258
309 310 313 313 310 309 308 306 304 300 297 296 295 292 289 285 284 281 278 275 272 271 269 269 269 267 264 263 264 264 263 264 263 261 259 257 256 257 259 260 259 258 259
312 314 312 312 310 310 308 308 307 304 302 302 301 297 291 287 285 283 280 278 275 273 271 269 267 267 265 263 263 263 263 263 261 260 258 257 256 257 259 261 260 260 259
312 312 312 312 310 309 309 308 307 305 303 302 301 298 294 290 287 282 280 277 275 273 273 271 270 269 268 265 264 264 263 263 261 260 260 259 258 259 261 261 261 260 259
313 313 311 311 311 311 311 309 307 304 302 301 300 298 295 293 291 286 281 279 277 276 275 274 271 270 269 267 265 264 264 264 261 261 261 260 259 260 261 260 260 260 259
310 311 312 312 312 312 311 311 308 305 303 302 302 300 298 296 293 288 285 281 281 278 275 272 270 270 268 267 266 265 264 262 261 261 261 261 260 260 260 259 258 259 259
312 312 312 312 311 311 312 312 309 307 305 304 302 301 299 297 294 291 289 287 285 282 278 274 272 271 270 269 268 265 263 262 262 261 260 261 260 259 259 258 258 259 260
313 312 312 312 311 311 311 310 309 307 306 305 303 301 299 298 296 294 293 291 289 284 280 277 274 272 270 270 268 266 263 262 261 259 259 259 258 258 258 258 258 258 258
312 312 312 311 311 311 310 309 309 307 306 305 304 302 301 299 298 295 293 290 286 284 281 280 278 275 272 271 270 266 265 264 261 259 257 258 259 259 259 259 259 258 257
311 311 312 311 310 310 307 307 307 307 307 305 305 303 302 300 297 294 291 289 286 284 282 280 279 277 276 273 270 269 267 265 263 260 257 257 258 258 259 257 256 257 256
310 310 311 311 311 309 307 306 306 306 306 306 305 304 302 300 298 296 293 289 286 283 282 280 280 279 278 274 273 271 266 264 264 261 257 257 258 259 258 255 254 255 256
311 311 312 312 311 310 309 309 309 308 306 306 304 301 300 299 299 297 294 289 286 285 283 280 279 279 277 274 272 270 267 265 264 261 258 258 258 257 257 256 254 255 257
312 312 312 312 312 312 310 310 310 308 307 307 306 303 302 300 298 297 295 292 291 289 287 283 282 281 279 277 276 273 270 268 265 262 260 259 259 259 259 256 254 256 257
312 312 312 312 313 313 311 310 309 308 308 307 305 304 305 303 301 299 296 293 293 292 291 289 285 280 278 278 276 275 273 269 268 265 264 263 261 259 259 258 258 257 258
312 313 313 313 313 312 312 310 308 307 307 306 305 303 303 302 302 300 297 295 295 296 295 293 289 282 279 278 276 275 274 271 270 270 267 266 264 260 260 259 258 257 258
311 312 312 312 311 311 311 309 308 306 306 305 304 302 301 300 299 296 295 295 295 297 297 296 293 286 282 281 279 277 275 273 273 273 270 266 264 263 262 260 259 258 258
309 310 311 311 310 310 310 308 307 305 304 303 302 302 300 298 297 296 295 294 295 296 296 294 291 286 283 281 279 277 275 274 273 273 272 267 264 263 261 261 261 260 259
307 308 309 310 310 310 310 308 305 303 304 303 300 301 300 297 297 296 295 296 296 295 294 292 289 285 281 279 279 278 277 275 273 274 273 269 265 263 261 261 262 262 261
306 306 306 307 308 308 309 307 304 302 302 301 299 299 298 296 296 296 296 297 296 294 292 289 287 283 279 278 278 277 276 274 274 275 272 267 265 265 265 265 264 264 263
304 304 306 306 306 307 308 306 304 303 302 300 298 298 297 295 295 296 297 298 296 293 290 289 288 286 282 280 280 279 276 275 277 277 274 270 268 269 268 267 266 266 265
302 303 304 305 306 306 306 304 302 301 301 300 298 298 298 296 294 295 296 297 296 294 292 290 290 289 286 282 280 279 276 277 279 279 279 278 276 274 271 268 268 269 267
302 304 305 305 306 306 306 304 301 300 300 300 301 300 297 298 298 296 296 298 298 296 293 292 292 291 289 286 280 278 276 277 280 282 281 281 280 277 274 272 271 272 270
304 305 305 305 305 306 306 305 302 301 301 302 303 304 304 301 298 297 296 299 301 300 295 293 291 290 290 288 283 281 281 280 281 281 281 282 281 278 275 273 274 274 272
303 304 304 303 304 305 306 306 305 303 302 301 303 305 307 305 300 298 298 298 299 300 298 295 295 294 291 289 286 283 282 281 280 281 281 281 281 278 275 275 277 276 272
301 301 301 301 302 301 303 303 303 302 303 302 303 305 306 306 304 303 302 299 299 300 299 299 299 296 293 290 288 284 281 279 279 281 281 281 281 280 278 277 277 275 272